Volver al catálogo

STARLINK-5136

ActivoComunicacionesVLEO
NORAD 56414·PAYLOAD·🇺🇸 United States

Lanzado May 4, 2023 desde Cape Canaveral Space Force Station

Loading…

Próximos Pases (próximas 24 horas)

TLE

ActualizadoSource: CelesTrak SupGP

Época: Sep 14, 2026, 21:41 UTC

1 56414C 23061AS  26257.90395833 -.00005956  00000+0 -21570-3 0  2575
2 56414  43.0002 198.5215 0001251 257.3880  29.7376 15.27584270    10

Sigue STARLINK-5136 en tiempo real con AllMySat

Download on the App Store